Theta_e
318 320 321 322 319 317 317 317 317 318 317 317 318 318 318 317 316 316 317 317 315 315 316 315 315 315 315 315 315 316 316 316 316 316 316 315 315 315 315 316 316 316 316 313 310 310 309 308 308 307 306 305 304 303 302 301 301 300 299 298 298 297 297 296 296 295 295 294 294 294 293 293 292 292 292 292 292 291 291 291 291 291 290 289 289 289
319 320 320 319 317 317 317 317 318 318 318 318 319 319 318 318 316 316 317 316 315 316 316 316 316 315 315 315 315 316 316 316 316 316 316 315 315 315 315 317 316 317 321 318 312 310 308 308 307 306 305 304 303 302 301 301 300 300 299 298 298 297 297 296 296 295 295 294 294 294 293 293 292 292 292 292 291 291 291 291 291 290 290 289 289 289
321 320 319 318 317 317 317 318 319 319 319 320 320 320 318 317 317 317 318 316 313 315 317 316 316 315 315 316 315 316 316 316 316 316 316 316 315 315 315 316 317 320 323 319 313 310 308 307 306 305 304 303 302 301 301 301 300 300 299 298 298 297 297 296 296 295 295 294 294 294 293 293 292 292 292 292 291 291 291 291 290 290 289 289 289 289
321 320 318 318 317 317 316 317 319 318 319 320 319 318 317 317 318 318 317 315 312 314 316 316 316 315 315 315 315 315 315 315 316 316 317 316 316 316 316 317 319 323 321 315 313 311 308 306 305 304 303 303 302 301 300 300 300 300 299 298 298 297 297 296 296 295 295 294 294 294 293 293 293 293 292 292 292 291 291 291 290 290 289 289 289 288
319 318 320 320 318 319 318 318 321 319 317 319 321 319 316 317 318 317 319 318 315 314 315 316 316 315 316 316 316 315 316 316 315 316 316 317 317 317 318 319 322 324 320 314 312 311 308 306 304 303 302 302 302 301 300 300 300 299 299 298 298 297 297 296 296 295 295 294 294 294 294 294 294 293 293 292 292 292 291 291 290 290 289 289 289 288
318 319 322 322 321 323 322 320 323 323 318 317 322 321 318 318 318 319 322 323 323 321 317 316 318 317 319 319 318 318 318 318 316 316 316 315 316 317 318 319 322 324 319 314 312 311 309 305 303 302 302 302 301 301 300 300 300 299 299 298 298 297 297 296 296 295 295 294 294 294 294 294 293 293 292 292 292 292 291 291 290 289 289 289 288 288
319 319 321 322 322 324 325 322 322 325 318 316 324 328 322 320 323 325 324 324 328 326 319 318 320 319 318 318 318 319 320 320 317 317 317 316 316 317 317 318 321 323 318 314 312 310 308 305 303 302 302 301 301 301 300 300 299 299 299 299 298 298 297 296 296 295 295 294 294 294 294 293 293 292 292 292 292 292 291 290 290 289 289 289 288 288
321 320 320 323 323 325 325 321 320 321 319 320 327 330 323 321 325 326 325 326 327 322 319 320 321 320 318 316 318 318 319 319 317 316 317 316 315 316 315 316 322 323 317 315 314 310 308 306 304 303 302 301 301 301 301 300 299 299 299 298 298 298 297 296 296 295 295 294 294 294 294 293 293 292 292 292 291 291 291 290 289 289 289 289 289 288
324 324 324 324 323 323 321 320 323 323 320 322 324 324 323 322 322 322 322 324 323 319 320 323 321 321 319 316 318 318 316 317 316 315 316 315 314 315 314 314 323 323 317 316 315 311 308 306 303 303 302 302 301 301 301 300 299 299 298 298 298 298 297 296 296 295 295 294 294 294 293 293 293 292 292 292 291 291 291 290 290 290 289 289 288 287
323 319 320 323 322 321 320 321 327 328 322 322 322 321 321 321 319 319 320 320 320 318 320 323 321 320 318 315 317 318 316 316 316 315 315 314 314 316 315 314 321 323 317 316 315 312 309 305 304 304 303 302 301 301 301 300 299 299 298 298 298 298 297 296 296 295 295 294 294 294 293 293 292 292 292 292 291 292 291 291 290 290 289 288 288 287
316 311 313 320 320 318 320 318 318 322 321 319 320 319 320 321 318 318 318 317 319 319 319 321 320 318 318 317 318 318 316 316 317 315 315 315 314 317 318 316 321 322 318 317 316 313 310 305 304 304 303 302 301 301 301 300 299 298 298 298 298 297 297 296 296 295 295 294 294 293 293 292 292 292 292 292 292 291 291 290 290 289 288 288 287 287
316 313 314 320 320 316 320 319 314 314 317 319 319 316 320 323 320 318 317 317 320 320 318 321 320 318 319 319 317 318 317 316 316 315 315 316 315 318 320 320 322 321 319 318 317 315 311 307 305 303 302 301 301 301 300 300 299 298 298 298 297 297 297 297 296 295 295 294 294 293 293 292 292 292 293 292 291 291 290 290 289 289 288 287 287 286
319 317 315 319 319 316 320 321 314 312 315 320 320 317 320 322 321 322 322 323 323 320 320 322 321 319 318 316 316 317 317 316 316 315 315 317 318 319 322 323 323 321 319 318 316 315 312 309 307 304 301 301 300 300 300 299 299 298 298 298 297 297 297 296 296 295 295 294 294 293 293 292 292 292 293 292 291 291 290 290 289 288 288 287 287 286
325 321 318 318 317 316 317 317 317 318 316 317 319 320 323 323 321 322 324 326 325 321 319 320 322 323 318 316 318 316 315 316 316 316 318 320 319 320 324 326 325 322 320 318 316 314 312 309 307 304 301 301 300 300 299 299 299 298 298 297 297 297 297 296 296 295 295 294 294 293 293 292 292 292 292 292 291 291 290 289 289 288 288 287 287 286
324 322 319 319 319 317 316 314 317 322 317 313 316 319 322 323 320 320 323 323 322 323 320 317 323 325 317 318 321 317 315 316 316 317 320 324 323 325 329 328 325 322 319 318 316 313 312 309 306 303 302 301 300 299 299 299 299 298 298 297 297 297 296 296 296 295 295 294 294 293 293 292 292 292 292 291 291 290 290 289 289 288 288 287 286 286
320 320 320 320 319 316 315 315 317 322 321 315 316 317 319 321 318 318 321 320 319 323 321 317 323 322 314 316 319 316 317 316 315 316 318 321 323 328 330 328 325 322 318 318 316 313 312 309 305 302 302 302 300 300 299 299 299 298 298 297 297 297 297 296 296 295 295 294 294 293 293 292 292 292 291 291 291 290 290 289 289 288 287 287 286 285
318 321 322 318 316 315 314 317 318 322 322 317 317 320 319 320 320 319 322 320 318 320 319 317 320 318 313 316 316 315 316 316 315 315 316 319 320 324 327 326 325 322 318 318 316 313 312 310 306 303 302 302 301 300 299 299 299 298 298 297 297 297 296 296 296 295 295 294 294 293 292 292 292 291 291 291 290 290 289 289 288 288 287 286 285 285
317 319 322 318 316 314 311 313 316 317 318 319 321 320 318 321 321 319 320 322 321 321 319 317 318 317 315 318 318 316 315 314 315 315 315 316 317 320 323 324 323 321 319 317 315 314 312 311 308 304 302 302 301 300 300 299 299 298 298 298 297 297 296 296 296 295 295 294 294 293 292 292 291 291 291 290 290 289 289 288 287 287 286 286 285 284
320 317 320 318 316 313 309 312 316 315 315 319 319 317 317 321 323 320 319 320 321 319 318 317 318 316 315 315 316 315 315 314 314 314 314 314 315 318 320 321 321 321 320 317 316 315 313 312 309 304 303 303 302 301 300 299 299 298 298 298 297 297 296 296 296 295 295 294 293 293 292 292 291 291 290 290 289 289 288 287 287 286 286 285 285 284
319 317 319 316 313 313 311 313 318 318 315 314 313 313 315 317 320 322 320 318 319 317 316 317 317 315 315 314 314 316 316 314 313 314 315 315 315 317 318 319 321 322 322 319 317 314 313 312 309 304 303 303 302 302 301 300 299 298 298 297 297 297 296 296 296 295 294 294 293 293 292 291 291 290 290 289 289 288 287 287 286 286 285 285 284 284
319 318 317 315 311 313 314 313 316 317 316 314 313 315 314 313 315 318 318 317 318 317 316 316 316 315 314 315 317 317 315 314 315 316 317 317 316 315 316 318 320 322 322 320 317 315 313 312 308 303 303 303 302 302 301 300 299 298 298 297 297 297 296 296 295 295 294 294 293 293 292 291 290 290 289 288 288 287 287 286 286 285 285 284 284 284
319 318 317 316 315 315 315 314 313 315 316 315 314 314 314 314 314 315 317 317 316 316 316 316 316 315 314 316 318 318 315 315 317 318 317 318 316 315 316 318 319 321 322 320 318 316 314 313 310 304 302 302 302 301 301 300 299 298 298 297 297 296 296 296 295 295 294 294 293 292 292 291 290 289 288 287 287 286 286 285 285 284 284 284 283 283
320 319 317 317 316 316 317 317 315 315 315 316 315 315 314 314 314 315 316 315 316 316 316 316 317 315 315 317 316 315 315 316 318 319 318 318 317 316 318 320 320 320 320 320 319 317 316 315 311 305 301 301 300 300 300 299 299 298 297 297 297 296 296 295 295 295 294 293 293 292 291 290 289 288 287 286 286 285 285 285 284 284 284 283 283 283
318 318 316 315 316 316 317 316 314 312 312 314 317 317 315 314 313 315 315 314 316 317 316 316 317 315 316 319 316 315 317 317 318 319 319 319 319 318 319 320 320 320 320 320 320 319 318 317 313 309 306 302 299 299 299 298 298 298 297 297 296 296 296 295 295 294 293 293 292 291 290 289 288 287 286 286 285 284 284 284 283 283 283 283 282 282
316 317 316 315 316 317 317 315 313 312 312 313 314 316 316 316 315 316 315 314 315 316 315 315 315 314 315 318 318 316 317 316 315 317 317 317 317 318 319 319 318 319 320 320 321 321 320 320 316 313 309 303 298 298 298 297 297 297 297 296 296 296 295 295 294 294 293 292 291 290 289 288 287 286 285 285 284 284 283 283 283 283 282 282 282 281
314 316 316 315 316 317 317 316 315 316 315 312 312 314 315 316 317 316 315 315 315 315 315 314 314 313 313 314 315 314 314 313 313 314 314 315 316 317 318 318 317 318 319 319 320 319 319 319 315 312 309 302 297 297 297 296 297 296 296 296 296 296 295 294 294 293 292 291 290 289 288 287 286 285 284 284 283 283 283 282 282 282 282 282 282 281
312 316 316 315 315 315 316 316 315 315 315 313 314 314 314 315 315 315 315 316 315 315 315 314 314 314 313 312 312 312 312 312 312 312 313 313 316 317 317 317 316 316 317 316 316 316 316 315 313 310 308 301 296 296 296 296 296 296 296 296 295 295 295 294 294 293 291 290 289 288 287 286 285 284 284 283 283 282 282 282 282 282 282 281 281 280
312 315 315 315 315 314 315 315 314 314 313 313 314 314 314 314 315 315 315 315 314 315 315 314 314 315 314 312 312 312 312 312 312 312 312 312 314 315 315 316 316 315 316 316 315 315 315 315 313 310 307 302 297 295 296 295 295 296 295 295 295 295 294 294 293 292 291 289 288 287 286 285 284 283 283 282 282 282 281 281 281 281 281 281 280 280
313 313 314 315 315 314 314 313 312 313 313 313 314 314 314 314 314 315 314 313 314 315 315 314 314 315 314 312 312 312 312 312 312 312 312 312 312 313 314 316 317 317 318 318 317 316 315 314 313 310 307 302 298 295 294 294 295 295 295 294 294 294 294 293 292 291 290 288 287 287 286 284 283 283 282 281 281 281 280 280 280 280 280 279 279 278
314 313 313 314 314 314 314 313 312 313 313 313 314 313 313 313 313 314 314 313 313 314 313 313 313 314 312 312 312 312 312 312 311 311 311 311 311 311 312 313 314 315 318 319 316 314 314 313 312 310 307 305 301 297 294 293 294 294 294 294 294 293 293 292 291 290 289 287 287 286 285 283 282 282 281 281 280 280 279 279 279 279 279 278 278 277
313 315 314 314 314 314 314 313 313 313 313 313 313 313 313 313 313 313 313 313 314 314 313 313 313 313 312 311 311 311 311 311 311 311 311 310 311 311 311 311 311 312 314 315 313 312 312 311 311 310 308 307 305 298 294 294 294 293 293 293 293 292 292 291 290 289 288 287 286 285 284 282 281 281 280 280 279 279 279 279 278 278 278 277 277 276
311 314 314 314 315 315 314 314 313 313 313 313 313 313 313 313 313 313 313 313 313 314 314 314 314 313 311 311 311 311 311 311 311 311 310 310 311 310 310 311 311 311 311 311 312 313 312 311 311 310 309 309 305 298 295 295 293 292 292 292 292 292 291 290 289 288 287 286 285 284 282 281 280 280 279 279 279 278 278 278 278 278 277 276 276 276
310 312 313 314 316 315 315 315 314 313 314 314 314 313 313 313 313 313 313 313 312 313 314 314 314 313 312 312 311 311 311 311 311 310 310 311 310 310 310 310 311 311 310 311 313 314 314 313 312 311 310 308 303 299 298 297 294 292 293 292 291 291 289 288 288 287 286 285 284 282 281 280 280 279 279 278 278 278 277 277 277 277 276 276 276 276
310 311 313 314 316 316 315 315 314 314 315 316 315 314 312 313 313 312 313 312 312 312 312 312 312 312 312 312 311 311 311 311 311 311 311 311 310 310 310 310 310 310 311 313 315 315 314 313 313 312 308 303 302 302 301 298 296 294 293 292 290 289 288 287 286 285 285 284 283 282 281 280 279 279 278 278 277 277 277 277 276 276 276 276 276 276
310 311 311 313 315 315 315 316 316 317 316 316 316 314 312 312 312 312 313 312 311 312 312 312 312 311 311 311 311 311 311 311 311 311 311 311 311 310 310 310 310 311 311 313 314 313 312 312 313 314 308 301 301 303 300 297 296 294 292 291 289 287 287 286 285 284 284 283 282 281 280 279 279 278 277 277 277 276 276 275 275 275 275 275 276 275
312 312 311 312 313 314 315 316 317 318 316 314 314 313 311 312 312 312 313 312 311 311 312 312 312 311 311 311 311 311 311 311 311 311 311 311 311 310 310 310 311 311 311 312 313 313 313 310 310 310 307 303 302 301 298 296 295 293 291 289 288 286 285 285 284 284 283 282 281 280 279 279 278 277 277 276 276 275 275 274 274 275 275 275 275 274
312 313 313 313 314 314 315 315 315 316 315 314 315 314 312 312 312 313 313 313 311 311 311 311 311 311 311 311 311 311 311 311 311 310 310 311 311 311 311 312 312 312 311 312 312 310 307 305 304 304 304 303 301 299 297 295 293 291 289 287 286 285 284 284 283 283 282 281 280 280 279 279 278 277 276 275 275 274 274 274 274 274 274 274 274 274
312 312 313 314 315 315 316 316 316 317 316 315 315 315 312 311 312 312 313 313 312 312 312 311 311 311 310 311 311 311 311 311 311 311 310 310 311 312 312 313 313 313 312 312 313 310 305 302 303 305 304 302 299 297 296 294 292 289 287 285 284 284 283 283 283 282 282 281 280 279 279 278 278 276 275 275 274 274 274 274 274 274 274 274 274 274
312 312 312 314 315 316 317 317 318 317 316 315 314 313 312 312 312 312 314 314 314 313 314 312 311 312 311 311 312 312 312 312 312 311 310 311 311 311 311 312 313 313 312 311 309 309 307 303 302 304 302 298 296 295 294 292 290 288 285 284 283 283 282 282 282 282 281 280 280 279 278 278 277 276 275 274 274 274 274 273 273 274 274 274 274 274
312 312 312 313 314 315 316 317 317 316 317 317 315 313 313 312 312 315 316 317 315 313 313 312 312 312 312 312 312 312 312 312 311 311 311 311 312 311 311 313 313 313 314 311 306 304 305 303 303 304 300 295 294 293 292 291 289 286 284 283 282 282 282 282 282 282 281 280 279 278 277 277 276 276 275 275 274 274 273 273 273 273 273 273 273 273
311 312 313 314 315 315 316 317 316 315 316 317 316 315 314 312 313 315 316 315 313 313 313 312 313 312 311 311 310 310 310 310 310 311 311 311 311 311 313 314 313 312 312 310 306 303 302 300 300 301 299 296 295 293 291 289 288 285 284 283 282 282 283 283 282 281 280 279 278 277 277 276 276 276 275 274 274 273 273 273 273 273 273 273 273 272
312 312 311 313 314 314 314 315 315 315 315 314 314 314 313 313 314 313 311 309 309 310 310 310 310 309 308 307 307 306 307 307 308 308 308 308 308 309 310 310 311 311 308 304 303 301 299 298 298 297 296 296 295 293 291 289 287 285 283 282 282 283 283 282 282 281 279 278 277 276 275 275 275 275 274 273 273 273 272 272 273 273 273 273 272 272
312 313 312 313 313 313 314 314 314 314 311 307 308 312 312 311 310 308 306 306 306 306 306 306 305 305 304 305 305 305 305 305 305 305 305 306 306 306 307 307 308 310 308 306 304 300 298 302 302 296 293 294 294 292 290 289 286 285 283 283 283 284 283 282 281 280 278 277 275 275 274 274 273 273 273 273 273 273 272 272 272 272 272 272 272 271
307 310 310 310 310 310 313 313 311 310 306 301 301 304 304 304 305 304 304 305 305 304 304 303 303 302 303 303 303 304 304 304 304 304 305 305 305 305 306 306 306 308 309 308 304 298 297 303 304 296 292 292 291 290 289 288 287 285 284 284 284 283 282 281 280 278 276 275 274 273 273 273 272 272 272 273 273 273 272 270 271 271 271 271 271 269
303 304 304 304 304 305 306 306 305 304 303 299 297 298 300 302 303 303 303 303 303 302 301 301 300 300 301 301 300 301 301 301 302 302 302 303 303 304 304 305 306 307 308 306 302 296 295 299 300 296 292 290 289 289 289 288 288 287 286 285 284 282 281 280 278 276 274 273 272 271 271 271 271 271 272 272 272 272 271 270 270 270 269 270 269 268
300 300 300 300 300 300 300 301 301 300 299 297 296 298 301 303 301 301 301 301 301 300 299 299 299 299 299 299 298 298 298 298 298 299 299 299 300 301 302 304 304 305 307 306 301 296 293 294 296 297 296 291 287 287 287 287 288 288 287 285 283 282 280 278 276 274 273 271 271 270 269 269 269 269 270 270 271 272 272 271 271 270 268 268 268 268
297 298 297 295 295 296 297 298 298 297 296 295 295 299 302 302 300 300 300 299 298 297 296 296 296 296 297 297 297 297 297 297 296 296 297 297 298 299 300 301 302 304 305 306 302 296 294 296 299 301 302 295 288 285 286 286 287 288 287 284 282 280 278 276 275 272 271 270 269 269 268 268 268 267 268 269 269 270 271 271 271 270 268 267 267 268
294 295 294 293 293 294 294 294 294 295 295 295 297 301 301 299 298 298 297 295 294 293 293 293 294 295 295 295 295 295 295 295 295 296 296 296 297 298 299 300 301 302 303 302 299 295 295 299 301 301 300 296 290 286 285 284 285 286 285 283 281 279 277 275 273 271 270 269 268 267 268 268 267 266 267 267 268 269 269 270 270 269 268 268 269 268
293 293 292 293 293 293 293 293 294 294 294 294 296 298 297 295 294 294 292 292 293 293 293 293 294 294 294 294 294 294 295 295 296 296 297 297 297 299 300 301 302 303 303 302 299 295 294 297 300 300 298 294 290 286 284 284 284 284 284 282 280 278 276 273 272 270 269 268 267 267 267 267 267 267 267 267 268 269 269 270 270 269 269 269 270 270
293 293 293 293 293 293 294 294 293 292 291 291 292 292 292 292 292 292 292 293 293 293 294 294 293 294 294 295 295 296 296 296 296 297 297 298 298 299 300 300 301 302 302 301 298 295 293 292 293 295 294 291 289 287 284 283 283 283 282 280 279 277 275 273 271 269 268 268 267 266 266 266 266 267 267 267 267 267 268 269 269 269 269 269 269 270
292 292 292 292 292 292 292 292 291 290 290 290 290 291 291 291 291 291 291 292 292 293 292 292 291 291 292 293 295 295 295 295 295 296 296 296 297 298 298 299 300 300 300 299 299 300 299 293 289 290 291 289 288 286 283 282 281 281 280 279 277 276 275 272 270 269 268 267 266 266 266 266 266 266 266 267 267 267 267 267 268 269 269 269 269 270
Wind_Speed
4 4 5 7 11 11 10 12 14 14 13 12 11 9 8 7 8 13 10 4 9 6 8 13 12 14 16 14 12 12 12 12 12 11 10 11 12 13 13 12 12 12 10 11 19 25 28 28 29 28 29 30 32 32 33 34 36 36 37 37 36 35 35 35 35 33 32 31 30 28 28 28 26 25 24 22 21 19 18 17 17 17 14 13 12 10
1 6 9 14 16 12 9 11 12 12 12 12 9 7 7 7 10 14 8 3 7 5 6 10 10 13 15 14 12 12 13 13 13 13 13 14 15 14 13 13 13 9 5 9 13 19 24 26 27 28 29 31 32 32 33 35 36 36 37 38 37 36 36 36 36 36 35 34 33 32 31 30 28 27 26 25 23 20 19 18 18 17 15 14 13 11
4 9 13 15 13 10 11 10 8 9 10 9 6 5 7 7 10 11 5 2 3 3 5 8 9 11 14 14 13 14 14 13 13 14 16 16 16 15 14 12 11 7 6 9 10 13 19 24 26 28 28 31 33 33 34 36 36 36 36 37 37 37 37 36 36 36 35 34 33 31 30 28 27 25 24 23 22 20 19 19 19 18 16 15 14 12
7 9 13 16 12 12 13 10 7 8 8 7 6 5 8 8 8 7 3 3 4 4 5 7 8 9 11 14 15 17 18 15 14 16 17 16 15 16 16 11 8 8 9 10 9 10 14 19 24 26 27 29 31 32 33 34 36 36 36 37 37 38 38 37 36 36 34 32 30 27 25 25 23 22 22 20 19 20 20 21 20 19 17 16 14 13
13 7 6 9 10 11 12 9 7 6 7 8 7 7 10 11 11 9 5 2 4 6 3 4 8 8 9 14 15 13 13 14 13 14 15 16 15 15 14 12 8 9 10 11 11 11 11 14 20 25 27 29 31 32 34 35 37 36 36 37 38 38 38 37 36 36 34 31 29 25 23 23 21 21 23 22 21 22 22 22 22 20 18 17 16 14
15 8 5 6 5 7 8 7 7 6 8 8 7 12 15 14 12 12 8 3 3 5 2 1 7 7 7 12 13 7 6 10 10 11 14 15 15 13 12 11 9 8 10 12 12 12 12 13 18 23 26 28 30 33 35 36 37 36 36 37 37 38 38 38 37 36 35 34 33 32 31 29 26 25 27 29 29 28 27 25 22 20 18 18 17 16
5 4 6 8 7 7 7 6 7 8 7 8 4 8 12 12 10 9 8 4 3 5 2 3 2 7 6 8 10 5 6 9 8 10 13 13 12 12 10 10 8 8 9 10 11 12 12 13 15 19 25 29 31 33 34 34 35 36 36 37 38 38 38 38 37 37 36 36 36 36 36 35 33 31 30 32 31 30 29 25 22 20 19 19 18 16
3 5 4 7 7 6 7 8 8 9 7 6 2 1 2 3 5 5 4 5 4 4 3 4 3 7 12 8 9 9 8 9 9 10 12 12 12 12 12 11 8 10 11 11 11 12 13 14 16 20 26 31 32 32 32 34 36 37 37 37 38 38 38 38 38 38 38 38 38 37 36 34 34 32 30 29 28 26 26 24 22 21 21 20 18 16
3 6 7 8 6 5 7 7 6 9 7 4 1 2 3 3 0 1 2 5 3 5 4 5 7 4 13 7 8 10 11 11 13 13 13 14 14 12 13 13 8 10 12 12 12 13 13 14 19 24 28 30 31 31 33 36 37 37 37 36 37 38 37 37 38 39 39 39 38 37 35 32 31 29 27 26 25 23 24 24 23 23 22 20 18 16
1 4 5 6 7 7 5 0 2 3 5 3 2 4 5 3 1 2 2 2 2 6 7 7 9 5 13 10 6 7 9 11 12 12 13 14 13 11 12 13 9 9 10 10 11 12 13 16 22 25 26 28 30 32 34 35 35 36 36 36 37 38 37 37 38 40 40 39 37 37 36 33 30 27 25 25 26 26 26 26 25 24 22 20 18 17
2 2 1 2 4 4 3 5 4 2 1 2 2 2 2 1 1 1 2 2 1 10 8 10 14 9 10 8 6 8 9 11 11 9 11 12 11 10 9 10 10 9 8 9 9 9 11 15 21 23 24 26 29 31 32 33 34 36 36 36 38 38 37 37 38 40 40 39 38 37 36 34 32 30 29 29 30 29 28 27 26 25 22 20 18 17
3 1 1 1 1 4 6 3 1 2 1 2 3 2 1 3 2 3 1 3 2 11 5 12 16 14 11 6 3 7 10 12 12 10 11 12 11 10 9 9 9 9 8 8 8 8 9 11 16 19 21 25 27 29 32 34 35 36 36 36 36 37 38 38 39 40 41 40 39 37 36 36 34 33 34 34 33 33 31 30 28 25 23 20 18 17
5 7 6 1 2 4 5 2 2 3 0 3 4 4 1 3 2 1 2 2 5 10 5 10 14 11 15 10 2 5 7 11 11 9 11 12 11 10 9 9 8 8 9 9 8 8 9 10 12 14 18 23 27 30 33 34 34 35 36 37 37 38 39 39 39 40 41 40 40 38 37 37 36 36 36 35 34 34 33 31 29 27 25 22 21 20
3 6 6 4 3 5 8 5 3 2 4 7 6 6 5 3 3 4 4 3 7 9 6 6 10 6 10 8 9 12 11 11 11 10 10 10 11 11 10 9 8 8 9 8 9 9 9 10 11 13 18 23 26 30 32 33 34 35 35 37 38 39 39 39 39 40 41 41 40 39 38 38 37 37 36 35 34 33 32 31 30 28 26 25 23 22
4 8 7 9 3 8 13 13 11 4 5 9 6 5 6 5 3 4 5 7 6 6 5 2 5 4 4 3 12 17 16 13 10 10 10 8 9 8 6 7 7 8 8 7 8 9 10 11 12 13 18 22 25 29 32 33 34 35 36 39 40 39 40 41 40 40 41 42 41 40 39 38 38 37 36 35 34 33 32 31 29 28 26 24 22 20
5 10 8 9 3 11 13 11 9 5 1 5 4 3 6 5 5 5 7 8 3 4 5 3 4 6 4 6 10 12 12 12 10 11 10 8 8 6 5 7 7 7 7 7 8 9 10 11 11 14 18 22 25 28 31 33 35 37 38 39 40 41 41 42 42 42 42 42 40 40 39 38 37 37 35 35 33 32 32 31 30 28 26 24 22 21
5 6 4 5 2 5 5 4 4 3 1 2 4 4 5 2 5 5 7 6 2 5 9 6 7 8 7 11 12 11 11 11 10 11 10 10 10 8 7 7 7 7 8 8 9 9 10 10 11 14 18 21 24 28 32 36 39 41 40 39 39 39 39 41 42 42 42 41 40 40 40 38 38 38 37 36 35 33 31 30 29 28 26 25 23 22
7 6 2 3 1 1 2 4 3 1 2 5 3 5 1 3 1 2 2 3 3 7 8 8 12 11 9 10 4 7 12 12 11 12 13 14 12 8 8 8 8 9 8 8 9 8 9 10 10 14 20 25 28 31 34 37 39 39 39 39 39 39 41 43 44 43 42 41 41 41 41 40 39 39 38 37 36 35 33 31 29 28 27 25 24 22
4 5 3 1 0 1 3 3 2 3 2 6 2 2 2 1 1 2 3 2 5 7 7 10 15 13 12 12 6 2 11 13 14 16 15 14 11 8 8 9 8 8 7 7 8 8 9 10 11 14 20 25 28 30 32 34 34 35 37 38 38 40 42 42 41 41 41 41 42 41 41 41 39 39 38 37 37 36 35 33 31 30 28 26 24 22
2 5 4 1 2 1 2 1 4 3 1 2 2 3 1 3 3 4 4 3 5 7 8 10 13 13 10 8 8 7 11 12 14 13 11 10 10 9 9 9 8 8 8 8 8 9 10 11 12 17 22 26 28 30 30 30 31 34 35 35 36 37 37 37 39 40 40 41 41 40 40 40 40 39 39 38 37 37 36 35 33 31 28 26 24 23
1 4 5 1 2 1 2 4 8 7 6 4 2 3 3 2 1 1 3 4 5 7 7 7 10 14 6 2 5 8 11 12 11 9 8 8 9 10 9 9 8 8 8 9 9 10 11 11 12 17 23 24 24 25 27 29 31 33 33 34 36 36 35 38 40 40 41 41 41 40 41 41 40 40 39 38 37 37 35 34 32 30 28 26 24 23
3 4 6 3 2 6 8 7 10 13 10 8 8 9 9 7 4 3 7 7 5 5 6 6 10 15 6 5 1 6 10 11 9 9 9 9 10 10 8 9 8 8 8 9 10 10 10 11 11 14 18 19 20 23 26 29 30 31 33 35 36 35 36 39 40 41 42 41 41 42 41 41 40 40 39 38 37 36 35 33 31 29 27 25 24 23
4 2 5 7 7 10 12 6 7 10 8 5 6 8 8 8 7 8 9 7 4 4 6 6 11 16 7 6 5 1 7 9 9 10 9 8 10 10 8 9 9 9 9 9 10 10 9 10 10 12 15 18 20 23 25 28 30 32 35 35 34 35 38 40 41 41 41 40 40 40 39 39 39 39 39 38 37 36 35 33 31 29 27 25 24 23
2 3 4 7 6 6 7 3 1 1 1 3 5 5 6 7 8 9 7 5 5 6 6 8 12 14 7 2 1 4 6 8 8 9 9 9 8 8 8 9 9 9 10 9 9 9 9 9 8 9 11 13 18 22 25 28 30 32 32 32 34 36 39 39 38 38 38 38 38 37 37 38 38 39 39 38 37 36 34 33 31 29 27 25 24 23
2 2 4 6 6 4 5 5 3 3 2 2 5 5 6 7 8 8 5 4 7 9 11 13 12 11 7 2 6 7 7 7 8 8 9 9 8 7 8 9 9 9 9 9 10 9 9 9 8 9 9 10 15 20 24 27 29 30 31 33 35 36 36 36 36 36 36 36 36 36 37 38 38 39 39 38 37 36 35 33 31 29 27 26 25 23
2 1 3 6 8 8 7 7 4 1 0 1 3 6 8 10 10 9 6 7 9 11 14 15 12 12 12 10 11 12 11 11 11 10 8 7 7 8 8 8 9 9 9 11 11 10 10 9 8 9 9 9 14 18 21 25 28 29 30 32 34 34 33 33 34 35 35 35 36 37 38 38 39 39 39 38 37 36 35 34 32 31 29 28 27 25
1 2 3 5 7 7 7 7 8 7 6 6 7 9 9 9 10 9 8 9 10 11 14 14 14 16 18 20 22 23 21 19 17 15 12 9 8 8 8 9 10 9 9 11 10 10 10 9 9 10 10 10 15 20 22 24 27 28 29 31 32 32 31 33 34 35 35 35 36 36 38 39 39 39 39 38 37 37 36 34 33 32 31 29 28 26
1 2 6 8 11 11 9 12 15 15 15 15 15 16 14 12 11 11 11 13 13 13 14 14 16 19 19 20 25 27 25 21 18 17 16 13 10 9 8 10 11 10 9 9 9 10 11 10 10 11 11 11 14 19 22 24 26 27 28 29 30 31 32 34 35 35 35 36 35 36 38 39 39 39 39 38 37 37 36 35 33 32 30 29 27 25
2 6 10 12 16 18 16 18 21 20 20 19 18 19 19 19 18 16 18 20 18 16 16 15 19 24 21 19 23 24 24 22 19 17 16 16 14 11 9 10 10 9 9 9 11 11 11 11 11 11 12 12 13 16 19 22 23 24 26 27 29 32 34 35 35 35 35 36 36 37 38 38 38 38 38 37 37 37 36 34 33 31 29 27 26 24
4 6 12 16 18 19 20 21 24 24 23 21 20 21 22 23 23 23 24 25 23 22 23 24 27 28 23 20 23 24 23 22 20 20 21 21 21 18 12 11 10 8 9 10 12 12 11 12 12 12 12 11 11 13 16 19 22 25 26 27 29 32 34 35 35 35 36 37 37 37 37 37 37 37 37 37 37 36 35 34 32 30 29 27 25 24
6 7 11 13 12 15 20 22 23 23 22 23 24 22 21 23 26 27 25 22 21 23 26 27 26 23 20 22 25 24 23 22 22 25 27 24 22 20 15 12 11 9 9 11 13 12 12 13 13 12 12 12 13 14 17 21 24 26 26 27 30 32 34 36 36 36 37 36 35 36 36 37 36 36 36 36 36 35 35 34 33 31 29 27 25 24
8 7 7 7 8 11 16 20 23 23 22 23 23 22 23 25 25 24 22 21 21 22 23 22 18 15 18 21 22 21 23 24 25 27 27 23 21 19 14 11 11 11 12 12 11 11 12 13 12 13 13 13 13 16 20 22 22 23 26 28 31 33 34 35 35 34 34 33 34 35 36 36 36 36 36 36 36 36 35 35 34 32 30 28 26 24
7 6 5 7 8 9 13 18 20 18 15 14 17 24 30 29 25 22 20 23 24 22 18 16 15 17 19 18 17 21 24 25 24 24 22 19 19 17 12 10 11 15 16 12 10 11 12 11 11 12 13 13 14 20 25 26 25 26 30 31 32 33 34 34 33 33 32 31 33 34 34 34 35 35 35 35 36 36 35 34 33 32 30 28 25 23
8 9 8 7 6 8 13 15 13 11 10 10 14 23 29 28 26 26 25 28 29 24 18 18 19 20 19 17 18 23 25 25 25 22 14 11 14 15 13 12 13 16 15 10 9 10 10 9 10 11 12 15 21 25 27 28 30 30 31 31 31 33 33 32 31 31 30 31 33 34 34 35 35 35 34 35 36 35 35 34 33 31 29 27 25 23
9 10 8 6 5 7 9 10 10 10 10 9 11 15 19 24 28 29 28 28 28 26 25 25 25 23 21 20 21 23 25 27 26 18 12 12 14 14 14 15 16 16 13 9 9 10 10 10 10 10 11 17 23 24 23 26 29 27 27 30 31 32 33 32 31 31 32 33 34 35 36 36 36 36 36 36 37 36 35 34 32 30 28 26 25 23
12 9 6 6 6 5 5 8 11 8 2 3 6 9 12 17 20 22 24 26 27 28 27 26 25 23 22 23 23 23 24 24 18 12 13 18 18 15 14 15 15 15 13 10 9 10 10 10 10 12 13 16 20 21 22 26 28 27 27 30 32 32 32 32 31 32 34 34 35 37 39 39 39 38 38 38 37 36 35 34 32 30 28 26 24 22
16 12 7 7 7 7 8 10 12 12 7 5 7 9 12 15 17 17 20 22 23 23 22 22 23 23 24 24 24 22 21 16 12 11 18 23 20 15 13 12 13 15 14 11 10 10 12 13 13 15 16 15 17 21 23 26 28 29 28 29 30 31 31 32 32 33 34 35 37 39 41 41 41 39 39 39 39 38 37 35 33 30 28 27 24 22
17 15 12 10 8 9 11 9 7 11 11 10 11 14 17 20 22 21 20 16 12 11 14 18 22 25 25 22 20 17 15 12 11 13 18 22 20 15 13 11 11 12 12 12 10 10 12 14 13 14 15 14 16 20 23 26 29 29 26 26 29 30 30 29 31 33 35 37 39 41 41 42 43 42 41 41 40 40 38 35 33 30 28 27 24 22
20 16 15 11 6 9 11 8 7 10 9 9 14 17 19 23 21 17 17 13 8 9 13 19 22 21 18 16 14 12 10 10 10 12 16 20 17 13 11 10 9 10 11 12 11 11 12 13 10 10 13 13 14 18 21 26 29 26 22 23 26 26 26 28 31 35 36 37 39 40 41 42 42 43 43 41 40 40 37 34 32 30 27 25 23 20
17 12 11 10 7 10 13 9 8 9 6 7 13 15 17 18 13 11 13 8 9 15 20 21 22 19 16 17 16 12 9 10 11 11 13 15 12 9 8 8 9 10 10 10 12 13 11 8 7 8 10 11 13 17 22 26 26 21 19 22 23 23 26 30 32 32 33 34 36 38 39 40 41 42 42 41 39 37 35 34 31 29 27 24 22 19
10 9 9 9 9 13 14 9 8 9 5 7 11 11 10 7 4 9 13 8 3 9 12 12 13 12 12 14 12 7 6 9 9 10 11 12 11 10 8 7 8 9 9 9 10 9 7 9 10 10 10 12 14 18 23 26 22 18 19 21 21 24 30 31 30 31 33 34 36 37 38 39 41 41 40 40 39 36 33 31 30 29 27 25 22 19
5 4 5 7 8 10 11 8 9 9 2 1 7 8 4 3 5 6 7 10 11 9 10 9 8 9 11 11 9 8 8 10 10 10 12 13 12 12 10 8 7 7 8 7 5 4 6 6 7 8 11 14 18 22 27 27 21 18 19 19 22 29 31 29 30 33 35 36 37 38 38 38 39 41 40 40 39 37 33 31 30 29 27 24 22 20
4 3 4 6 5 8 10 8 6 5 4 10 8 4 2 4 5 5 8 10 11 12 13 11 10 12 13 12 12 12 12 12 12 12 12 13 12 11 11 10 8 8 8 7 5 4 5 4 5 8 10 14 19 24 28 27 21 18 18 20 26 30 28 28 32 35 35 37 37 38 38 39 40 41 41 40 39 38 35 32 30 28 26 24 23 20
5 3 4 3 1 2 5 4 2 1 3 10 9 5 6 8 6 6 7 7 8 10 10 9 10 12 12 12 14 15 14 13 14 14 12 12 12 12 12 12 11 10 9 9 9 7 6 5 6 8 9 13 18 22 27 27 21 17 18 21 24 26 27 29 34 36 36 37 38 37 38 40 41 42 41 41 40 38 36 33 31 29 26 24 23 21
5 2 3 5 4 3 4 6 6 3 4 6 6 6 11 9 5 6 6 6 6 7 7 8 11 13 12 12 14 15 14 14 16 15 14 13 13 12 12 11 10 10 9 10 10 9 9 9 8 7 8 13 19 22 25 27 22 17 18 21 23 28 31 33 35 36 36 37 37 38 39 40 41 41 41 41 41 40 38 35 32 30 27 25 23 22
8 5 2 3 6 7 8 8 7 8 11 14 13 10 8 5 5 5 5 6 6 6 6 6 9 12 13 13 13 14 15 16 18 18 17 16 15 14 13 12 11 10 9 9 10 9 10 10 8 7 8 11 17 21 24 26 24 21 21 22 26 31 34 36 36 35 35 37 38 39 42 42 41 40 40 40 40 39 39 38 35 32 29 26 23 21
7 6 5 7 10 10 8 7 10 13 16 19 18 11 4 3 6 6 5 6 8 9 10 10 11 12 13 12 12 14 16 17 18 18 17 16 15 16 15 14 14 12 9 10 11 12 10 7 7 8 8 9 15 20 22 25 27 25 21 22 28 32 35 37 36 34 35 38 38 41 45 46 43 41 40 39 37 36 36 37 36 33 31 28 24 21
8 10 10 10 11 10 11 13 16 17 15 13 11 6 4 7 9 9 8 10 11 12 13 13 13 12 11 11 12 13 14 15 16 16 15 14 14 14 14 15 15 13 11 10 11 11 8 7 9 10 9 10 15 20 22 24 26 24 21 22 29 33 35 36 35 35 37 38 40 44 47 48 47 44 42 40 38 37 37 36 34 32 31 30 29 26
10 12 11 11 12 13 13 12 12 12 13 12 8 6 8 11 13 13 13 12 12 13 14 14 13 10 10 11 13 12 13 14 14 13 13 13 13 13 13 14 14 13 11 10 9 9 9 9 10 9 9 13 17 19 22 25 26 25 24 26 31 35 37 35 33 35 36 36 40 45 46 46 47 47 44 41 38 37 37 37 34 31 29 28 28 27
8 10 10 10 10 11 11 11 11 12 14 15 15 14 12 12 14 15 15 13 12 13 13 13 13 11 9 10 11 11 12 12 11 12 12 11 12 14 14 15 14 13 11 11 10 8 9 11 12 11 12 16 19 20 23 26 27 27 28 31 35 39 39 35 32 33 33 34 40 46 47 45 45 46 46 43 38 33 31 29 27 27 27 25 23 20
7 8 8 9 10 12 14 14 13 13 15 15 17 18 15 12 11 11 12 13 12 11 12 13 14 15 13 11 10 11 12 13 14 14 13 13 13 14 14 15 14 14 14 14 12 9 9 10 12 11 13 17 20 22 24 26 28 30 32 35 39 41 41 38 34 31 31 33 41 49 49 46 44 43 42 41 39 37 34 27 20 19 22 23 20 18
Wind_Direction
170 188 202 221 235 230 216 216 225 236 246 256 265 268 266 273 272 268 277 211 184 200 218 222 233 245 254 253 248 257 257 253 252 247 243 241 244 247 246 245 236 230 225 192 188 191 193 196 195 191 189 187 187 188 187 187 188 190 190 188 189 189 188 188 187 186 185 184 184 186 192 194 194 196 195 196 202 202 202 207 215 219 218 222 232 239
185 207 218 227 237 243 237 236 238 241 248 253 256 267 271 266 267 272 277 204 186 203 229 235 244 250 256 260 257 255 254 252 252 253 253 249 250 254 252 248 240 229 192 163 175 181 185 190 188 186 184 183 184 184 186 188 190 192 192 191 190 189 189 191 191 189 188 190 190 191 195 196 195 197 199 199 201 201 202 208 216 219 217 220 228 235
224 228 232 236 246 257 255 255 257 261 261 263 270 275 274 269 275 280 270 183 182 195 238 250 255 258 262 265 261 255 250 246 243 246 251 251 254 258 255 251 240 212 162 161 166 168 178 182 181 182 183 185 185 185 188 191 191 192 192 193 192 191 191 193 194 192 192 194 195 197 197 197 196 198 201 203 203 201 202 207 214 217 217 222 226 232
229 229 233 240 249 252 254 250 243 268 267 249 252 261 266 261 266 278 248 193 208 213 246 270 269 262 267 270 261 253 251 248 245 245 250 252 252 255 255 252 230 196 172 169 168 167 173 175 178 182 183 185 185 186 190 191 191 192 193 193 193 193 193 194 195 195 194 195 195 198 198 195 196 197 196 198 200 201 202 207 212 214 217 223 228 233
241 229 207 230 237 236 245 245 227 249 261 239 220 229 253 253 247 256 249 200 221 235 251 302 290 264 243 252 258 254 246 244 242 238 247 253 251 253 256 252 226 192 176 173 173 172 172 176 182 184 184 184 186 190 192 191 192 193 194 195 194 195 195 195 196 195 194 192 188 187 185 183 184 184 184 185 188 194 199 204 209 213 216 221 227 232
247 227 175 201 219 214 226 238 212 210 258 260 212 213 239 251 253 259 273 321 305 268 216 154 284 269 209 225 251 255 219 232 234 225 236 248 252 252 252 249 229 195 177 174 177 177 176 180 183 185 186 186 190 194 195 194 194 194 195 196 196 196 197 197 197 195 192 190 186 182 178 177 176 177 185 190 191 193 198 203 207 212 217 221 224 228
243 183 174 202 216 215 221 246 217 198 254 272 226 216 238 252 260 262 272 285 258 265 239 140 275 285 253 230 245 241 201 224 229 221 230 236 246 249 246 244 220 185 176 177 181 179 176 178 180 186 190 191 195 197 196 195 195 196 196 197 197 197 198 198 197 195 192 190 189 188 187 186 185 185 192 198 199 201 203 204 207 211 215 219 221 222
138 135 164 200 212 217 222 245 222 194 233 266 262 256 239 246 259 257 255 240 234 288 276 162 144 280 277 248 218 220 213 228 233 229 236 235 237 240 245 250 214 174 178 179 182 181 178 183 185 189 193 195 197 196 194 195 196 197 197 198 198 198 199 198 197 195 194 193 192 192 193 193 194 194 196 199 200 203 205 204 204 206 210 214 218 220
113 174 201 195 193 214 221 238 213 183 209 250 37 60 86 92 284 93 226 245 281 315 267 185 152 242 276 255 185 205 212 225 235 232 237 238 233 227 233 245 217 175 184 182 181 182 180 186 189 190 193 196 197 195 194 197 197 198 198 198 198 198 199 198 198 197 197 197 195 195 196 196 198 199 198 199 196 195 197 196 197 200 204 209 214 219
117 190 215 183 182 217 215 59 28 175 209 221 115 76 75 79 51 84 218 252 339 285 244 188 163 205 274 267 184 194 210 217 230 232 234 238 236 223 218 229 211 178 188 186 181 182 181 186 188 189 190 192 194 196 196 197 197 197 197 197 198 199 199 199 199 199 198 199 198 198 198 197 197 195 193 193 188 187 189 190 193 196 200 206 211 216
174 122 307 198 190 197 130 76 30 36 150 171 124 70 48 291 26 73 232 104 24 269 242 187 184 191 268 274 165 182 203 200 211 222 230 236 239 230 212 213 204 183 185 182 179 179 176 179 181 182 185 188 192 194 195 197 197 197 197 197 198 199 199 199 200 200 200 200 200 201 201 199 196 191 186 184 183 185 187 189 193 196 200 204 209 215
216 172 215 274 210 124 105 88 18 32 68 113 118 106 334 297 18 34 295 101 208 266 237 178 187 192 233 262 135 192 200 191 203 208 213 223 231 231 215 205 199 183 175 171 172 171 161 167 174 177 180 184 187 190 193 196 196 196 197 197 198 199 200 200 200 201 201 201 202 203 203 201 198 192 188 186 185 188 190 192 195 197 199 201 205 211
245 230 198 217 316 157 140 115 22 4 341 151 141 135 129 284 309 311 250 151 220 258 244 177 181 199 237 248 223 236 212 197 212 211 206 208 213 224 217 204 193 173 168 167 169 168 166 172 175 176 179 181 185 189 192 194 194 195 197 197 198 199 200 201 201 201 201 202 203 203 203 202 199 196 194 192 190 192 193 194 194 195 196 196 198 203
267 261 182 160 298 184 163 175 216 256 190 179 165 150 165 208 247 248 242 240 239 258 272 188 175 212 265 249 208 221 222 204 206 216 216 198 196 214 213 196 179 166 169 169 170 173 176 181 180 181 183 183 187 190 191 192 193 195 196 198 200 201 200 200 202 202 202 204 205 204 204 203 200 199 198 197 195 195 196 196 196 197 198 197 199 204
242 284 182 164 212 177 180 205 210 171 165 196 179 159 194 197 206 233 232 244 259 280 288 187 166 217 276 214 193 206 220 211 195 208 215 201 200 205 187 170 164 168 175 171 175 181 184 184 182 185 187 186 188 189 190 192 193 194 197 199 200 201 200 200 201 202 203 204 205 205 205 203 202 200 200 200 199 198 198 198 198 197 198 199 201 205
229 272 192 162 162 165 182 220 204 129 124 218 150 154 232 206 193 243 257 252 285 324 276 221 211 240 258 263 228 213 221 217 205 208 206 211 217 186 155 168 170 176 180 175 182 188 191 189 185 188 190 190 189 188 190 193 194 196 198 200 201 201 200 200 201 202 203 204 204 205 205 203 201 200 199 199 199 199 199 199 199 197 198 198 198 200
229 277 172 140 17 153 175 251 194 153 213 189 131 193 234 160 166 229 275 283 307 285 272 258 252 271 300 282 247 213 215 214 208 212 204 212 217 192 182 192 185 188 188 185 191 192 191 190 190 193 192 191 190 190 194 196 197 199 198 198 201 202 201 201 202 203 203 203 203 204 204 202 201 199 199 198 197 197 198 197 198 198 197 198 199 201
228 263 200 148 324 297 302 317 300 295 135 134 172 221 244 29 91 175 271 306 274 256 272 277 270 278 287 281 258 180 206 210 203 210 210 213 214 200 202 207 199 195 188 189 195 193 194 193 194 196 196 197 196 195 198 199 200 201 200 199 200 200 202 203 203 203 203 202 202 203 203 202 201 200 199 198 197 196 196 195 197 197 198 200 202 205
222 244 267 128 332 342 4 337 301 310 121 137 202 248 101 123 216 164 177 227 248 251 270 277 278 276 254 261 300 217 203 203 203 209 210 210 208 204 212 219 212 193 180 189 196 195 199 199 200 200 200 202 202 201 202 201 201 202 202 202 202 202 204 204 203 202 202 203 203 202 202 201 200 199 198 197 196 196 195 196 197 198 200 202 205 209
197 221 250 330 334 342 18 252 193 237 268 105 349 337 115 171 181 180 188 195 221 240 263 275 280 277 251 246 263 224 190 195 205 209 211 209 208 208 210 216 211 192 188 196 199 202 204 204 204 204 204 204 202 203 203 200 200 203 204 203 204 206 205 205 204 203 202 203 203 202 201 200 199 198 197 196 196 195 195 197 198 199 201 203 207 212
169 226 233 301 341 253 221 198 179 194 205 183 233 251 217 195 145 215 240 220 212 226 243 255 267 270 264 168 216 197 180 195 199 197 211 214 217 219 214 214 210 196 200 203 203 207 208 209 210 208 209 208 204 203 201 199 200 202 203 203 204 205 204 204 205 204 202 202 201 200 199 198 197 196 195 195 195 195 195 197 198 200 201 203 207 213
176 215 216 203 237 239 243 217 194 207 208 193 204 212 212 203 182 238 247 230 218 226 233 236 257 264 267 66 74 182 177 193 188 186 208 215 221 228 222 220 213 201 207 210 209 211 207 208 211 207 206 203 201 201 200 199 199 200 203 204 203 203 204 205 205 204 203 200 199 200 198 195 194 193 193 192 193 194 194 196 197 198 200 202 207 213
160 158 218 225 231 249 262 244 199 219 227 229 227 217 217 204 190 220 236 235 238 229 234 246 255 259 267 47 20 236 174 179 180 184 201 212 220 223 217 218 217 213 215 214 213 212 209 212 209 199 196 196 201 203 200 199 199 200 204 204 201 202 206 207 206 205 203 199 198 198 195 192 191 190 191 190 191 193 193 194 196 197 199 202 206 211
112 112 215 244 260 278 286 299 23 0 323 264 259 231 219 216 215 229 231 242 247 220 225 246 249 259 273 71 184 225 166 166 183 184 194 212 217 215 217 220 219 220 222 222 221 218 214 214 204 190 191 197 203 203 201 201 201 201 203 203 202 204 207 207 206 205 201 198 196 194 191 190 189 189 189 190 190 191 192 194 194 196 199 201 205 209
279 208 204 242 266 277 277 269 288 355 35 260 257 244 238 239 244 254 258 261 253 234 235 248 252 262 276 201 196 211 187 192 214 209 207 219 219 213 221 225 223 222 224 226 227 226 222 212 196 194 199 202 206 205 203 203 202 201 201 203 204 206 207 206 205 203 200 196 192 190 190 189 188 189 190 189 190 190 191 192 192 194 197 199 203 207
313 285 207 225 240 242 246 250 257 292 18 264 260 248 246 241 238 249 256 246 247 241 238 247 258 265 273 275 259 249 245 246 252 249 240 236 229 222 223 226 226 222 221 224 226 227 226 216 203 204 205 204 208 210 208 205 203 201 201 204 207 206 203 202 202 201 198 195 191 188 189 189 189 190 190 189 189 189 190 190 191 193 196 199 202 205
19 305 264 251 250 248 250 269 292 296 278 274 268 253 250 249 244 247 249 244 251 255 247 248 258 265 269 273 271 267 266 267 270 270 270 264 246 231 225 228 229 225 223 225 227 232 231 223 212 210 209 209 210 211 211 210 206 201 201 204 206 204 200 199 199 198 196 194 191 189 189 190 190 190 189 188 188 187 189 190 191 193 195 198 201 203
103 245 256 266 266 261 260 267 274 277 269 265 264 262 263 264 257 252 252 250 253 258 255 252 258 263 261 260 267 271 273 273 273 272 274 272 255 231 220 228 233 234 234 232 231 235 234 227 219 215 214 214 213 213 213 213 210 205 204 203 202 200 199 197 196 195 194 193 191 191 191 191 191 190 189 187 186 186 187 188 189 191 193 196 199 202
174 230 234 243 250 248 248 251 252 255 256 252 251 253 256 256 253 250 250 247 244 250 259 259 257 259 258 257 263 269 273 277 278 275 274 273 267 251 226 226 233 227 226 233 234 232 230 228 224 219 217 216 213 212 212 212 210 207 205 203 200 198 197 196 194 192 192 191 192 193 192 190 189 189 187 185 184 183 184 185 186 188 190 194 197 201
174 228 225 231 242 241 237 239 239 241 246 248 247 244 246 251 251 248 248 246 243 247 253 254 253 255 259 262 262 266 270 276 280 279 275 271 270 266 249 244 250 228 208 224 236 231 226 228 226 221 219 218 215 211 209 209 206 203 203 201 197 196 196 194 192 191 191 192 194 193 190 188 187 186 184 183 181 180 180 181 182 184 187 191 196 200
195 210 207 219 242 239 234 236 236 235 239 244 248 246 244 248 249 247 247 247 245 245 246 248 252 257 261 261 261 265 269 271 272 272 272 270 268 267 261 260 265 250 224 227 233 231 229 228 229 228 222 219 218 213 210 209 205 203 201 197 195 195 194 193 191 192 192 193 192 190 187 186 184 183 182 180 179 178 178 179 181 183 186 190 194 198
201 213 203 213 240 236 230 235 236 235 236 239 245 249 245 242 241 240 241 241 241 244 247 248 249 252 252 254 259 263 263 263 264 264 267 269 268 269 268 267 268 265 257 243 230 229 231 228 229 228 223 223 222 216 213 209 202 198 197 196 195 193 192 191 191 192 192 191 189 187 185 183 181 179 180 178 177 177 178 179 181 182 186 189 192 196
191 210 212 216 240 243 231 234 236 235 236 233 231 234 236 237 239 242 245 245 243 242 244 246 244 244 246 249 255 258 258 258 257 257 262 269 274 274 269 260 259 263 266 254 226 224 230 228 227 226 223 222 220 220 218 208 198 199 199 196 193 190 188 190 190 190 190 188 186 184 182 181 179 178 178 177 177 177 177 179 180 182 186 189 191 194
194 212 222 219 240 248 236 239 242 233 231 227 217 222 230 235 238 238 240 241 242 241 241 244 247 250 251 247 246 250 255 256 255 255 259 266 273 276 273 265 261 262 264 254 229 227 228 224 229 231 226 222 221 224 221 209 203 204 200 192 188 186 185 187 187 187 185 184 184 182 180 179 178 177 177 177 177 177 178 180 181 182 186 187 188 192
205 214 226 224 238 249 238 238 242 233 227 229 222 219 226 235 239 242 244 244 246 249 248 248 249 249 249 249 248 249 252 255 260 267 273 263 258 263 268 268 264 261 258 249 245 247 242 232 232 234 227 223 222 220 212 204 202 197 189 185 183 183 184 184 183 183 183 183 182 181 179 179 178 177 177 177 177 177 178 179 180 181 183 185 188 191
220 218 219 220 229 242 232 220 235 255 264 194 209 210 220 235 241 247 253 249 244 247 249 250 252 251 250 250 250 251 254 259 269 280 272 262 256 251 251 255 259 263 260 248 245 250 252 242 230 230 231 224 216 208 199 197 193 184 179 181 181 180 181 181 181 183 183 182 181 180 180 179 178 177 177 177 177 176 176 177 179 181 182 183 186 189
223 224 225 228 219 223 235 231 240 263 267 207 196 200 212 227 230 235 248 244 235 240 248 254 257 256 252 251 250 254 262 271 282 277 265 263 262 252 241 235 245 258 262 255 248 252 258 251 236 235 236 221 205 199 194 190 184 175 173 175 176 178 179 179 182 185 183 182 182 181 181 180 178 177 176 177 177 177 177 178 179 181 181 180 181 184
219 220 221 226 213 215 238 243 237 252 248 222 216 215 218 230 232 236 250 251 229 227 238 243 249 250 249 252 255 259 267 270 267 264 263 263 263 255 245 236 233 244 254 259 258 261 263 257 246 237 226 208 201 200 191 182 177 171 168 171 174 176 177 181 186 186 184 185 184 182 182 181 180 178 177 177 179 178 177 177 177 179 180 180 180 182
222 221 222 231 224 215 235 241 231 246 245 217 221 225 227 238 241 246 262 261 214 205 227 237 245 249 251 257 255 248 251 252 250 254 258 261 263 262 257 252 240 234 240 244 243 245 253 256 246 219 202 196 198 195 185 177 173 168 166 171 173 174 180 188 191 188 186 186 184 182 182 182 181 180 179 178 179 178 176 176 176 176 178 179 179 179
225 223 222 231 227 220 234 243 237 251 251 201 211 222 229 240 245 248 263 259 187 200 222 232 240 247 253 258 256 245 240 243 246 253 259 265 274 276 258 245 235 228 228 234 238 238 236 225 201 183 188 197 193 185 179 175 170 166 168 171 172 179 191 195 192 189 187 184 182 181 181 182 182 181 179 178 178 177 175 174 173 173 174 175 176 176
232 226 219 227 229 224 229 241 248 251 233 182 202 217 225 239 239 235 254 279 260 232 241 246 254 266 273 275 280 284 272 268 272 279 282 286 288 283 265 247 241 235 230 237 243 231 197 183 186 188 197 201 189 180 178 173 167 170 172 171 179 195 199 195 189 185 183 181 180 180 180 181 182 180 179 178 175 172 171 171 171 172 172 173 173 174
231 226 223 226 237 236 232 245 257 250 228 163 234 234 223 242 251 256 294 341 358 352 352 353 342 344 344 336 339 340 327 328 332 327 320 313 304 299 293 286 278 267 259 260 259 208 164 168 187 195 199 196 187 182 180 174 171 176 173 177 198 204 197 189 184 181 179 177 177 177 177 178 179 178 176 175 172 169 167 169 172 173 172 171 171 173
258 260 241 213 222 244 236 236 247 245 5 1 326 298 342 306 293 330 352 1 17 23 16 7 9 12 2 351 344 338 338 346 350 348 343 335 330 330 326 321 315 301 290 291 287 241 188 176 203 212 205 194 188 186 182 177 176 176 179 197 209 201 188 183 181 177 175 174 174 174 175 175 175 175 174 173 172 169 166 167 170 170 169 170 170 170
289 291 277 261 303 265 235 247 276 224 0 3 9 8 317 309 334 0 352 354 16 25 17 0 357 358 354 347 339 335 337 340 341 344 343 336 337 338 333 331 329 320 311 301 288 262 216 205 230 231 210 195 193 190 187 185 182 179 191 207 203 187 178 179 177 173 172 172 171 171 173 172 172 173 173 171 170 167 164 165 167 165 166 170 170 169
309 328 278 278 313 324 283 288 304 309 309 331 357 335 302 306 349 4 355 8 17 16 12 354 338 337 340 339 332 326 326 327 328 329 327 325 327 323 319 320 315 309 304 295 284 260 227 226 235 226 207 200 199 198 196 194 189 189 203 205 189 178 177 176 172 171 171 170 169 168 168 168 169 171 171 171 170 167 165 164 164 163 166 169 170 170
323 338 307 287 310 311 293 275 285 316 318 314 319 318 302 313 354 358 1 5 350 343 347 332 320 319 319 320 320 316 313 314 314 313 312 312 310 307 307 305 299 297 292 282 271 247 229 233 236 224 219 213 205 203 205 203 200 204 208 197 183 179 178 173 171 171 170 168 167 166 165 165 166 167 168 169 170 170 169 167 165 164 166 169 171 172
323 334 330 313 304 300 293 288 300 309 307 305 308 306 285 316 342 347 347 332 321 317 314 308 303 302 300 301 303 299 299 302 303 302 303 303 301 300 299 295 292 291 281 268 259 243 223 219 227 226 231 230 217 212 211 210 210 214 211 193 183 180 176 172 171 171 169 168 167 166 166 165 164 165 165 166 167 169 170 169 167 165 167 170 171 171
309 315 315 305 293 286 283 288 295 294 289 288 293 301 312 317 318 318 314 312 312 310 309 306 300 295 294 294 292 287 288 291 291 293 296 297 296 295 292 291 291 289 281 271 257 238 212 205 225 228 230 237 228 217 214 216 217 217 211 195 185 178 173 173 174 172 172 171 169 168 168 167 164 164 164 165 167 168 168 167 168 168 172 175 175 172
288 292 296 295 293 290 286 289 298 300 298 295 293 305 315 311 310 311 312 312 312 309 307 303 296 292 292 291 289 286 283 281 282 285 289 291 293 294 293 293 294 292 291 288 266 234 211 214 227 223 225 238 233 218 215 218 217 214 208 196 186 178 174 175 176 174 173 173 171 169 169 168 166 165 164 164 168 170 170 170 171 172 175 180 182 179
269 272 279 288 291 289 296 315 331 322 307 303 308 315 318 313 313 316 316 317 318 317 317 317 316 314 304 293 293 294 291 290 292 293 292 291 294 297 297 297 298 296 293 293 282 253 227 225 227 224 229 238 231 217 215 217 212 209 205 196 187 181 177 175 174 174 175 175 174 172 170 168 167 166 164 163 164 163 165 168 172 174 175 177 178 178
261 272 282 287 287 288 296 308 312 302 294 298 308 314 317 322 329 331 329 328 330 332 336 336 331 325 319 313 310 309 308 310 310 308 306 302 298 298 297 296 297 296 294 293 289 274 253 237 229 228 235 238 228 217 215 214 207 204 202 195 188 184 180 175 173 174 179 180 178 175 171 168 166 165 164 163 161 158 156 157 161 171 176 172 167 167